KD4UFD Weather Reports


time (UTC)temp
C
wind
direction
speed
KPH
gust
KPH
rain 1hr
cm
rain 24hr
cm
rain mn
cm
humidity
%
barometer
mb
20260903132428 27 124 0.0 0.0 0.00 0.00 0.00 86 1019.3
20260903131928 27 154 1.6 3.2 0.00 0.00 0.00 86 1019.4
20260903131423 27 121 0.0 0.0 0.00 0.00 0.00 85 1019.2
20260903130921 26 122 0.0 0.0 0.00 0.00 0.00 87 1019.4
20260903130417 26 36 0.0 0.0 0.00 0.00 0.00 87 1019.4
20260903125915 26 54 0.0 0.0 0.00 0.00 0.00 87 1019.4
20260903125410 26 40 0.0 0.0 0.00 0.00 0.00 87 1019.7
20260903124909 26 91 0.0 0.0 0.00 0.00 0.00 87 1019.4
20260903124405 25 49 0.0 0.0 0.00 0.00 0.00 88 1019.4
20260903123904 25 102 0.0 0.0 0.00 0.00 0.00 89 1019.5
20260903123358 25 147 0.0 0.0 0.00 0.00 0.00 89 1019.3
20260903122857 25 137 0.0 0.0 0.00 0.00 0.00 90 1019.1
20260903122352 24 130 0.0 0.0 0.00 0.00 0.00 92 1019.3
20260903121851 23 151 0.0 0.0 0.00 0.00 0.00 95 1019.2
20260903121346 23 124 0.0 0.0 0.00 0.00 0.00 98 1019.4
20260903120842 23 99 0.0 0.0 0.00 0.00 0.00 99 1019.1
20260903120341 22 107 0.0 0.0 0.00 0.00 0.00 99 1019.2
20260903115839 22 20 0.0 0.0 0.00 0.00 0.00 99 1019.2
20260903115334 22 2 0.0 0.0 0.00 0.00 0.00 99 1019.0
20260903114834 21 226 0.0 0.0 0.00 0.00 0.00 99 1018.9
20260903114330 21 234 0.0 0.0 0.00 0.00 0.00 99 1018.9
20260903113825 21 218 0.0 0.0 0.00 0.00 0.00 99 1018.7
20260903113321 21 218 0.0 0.0 0.00 0.00 0.00 99 1018.8
20260903112817 21 218 0.0 0.0 0.00 0.00 0.00 99 1018.6
20260903112313 21 218 0.0 0.0 0.00 0.00 0.00 99 1018.5
20260903111811 21 279 0.0 0.0 0.00 0.00 0.00 99 1018.9
20260903111306 21 279 0.0 0.0 0.00 0.00 0.00 99 1018.6
20260903110802 21 279 0.0 0.0 0.00 0.00 0.00 99 1018.6
20260903110258 21 279 0.0 0.0 0.00 0.00 0.00 99 1018.6
20260903105757 21 279 0.0 0.0 0.00 0.00 0.00 99 1018.5
20260903105252 21 279 0.0 0.0 0.00 0.00 0.00 99 1018.4
20260903104752 21 279 0.0 0.0 0.00 0.00 0.00 99 1018.2
20260903104247 21 279 0.0 0.0 0.00 0.00 0.00 99 1018.3
20260903103743 21 279 0.0 0.0 0.00 0.00 0.00 99 1018.1
20260903103239 21 279 0.0 0.0 0.00 0.00 0.00 99 1018.2
20260903102735 21 279 0.0 0.0 0.00 0.00 0.00 99 1018.3
20260903102235 21 279 0.0 0.0 0.00 0.00 0.00 99 1018.2
20260903101733 21 245 0.0 0.0 0.00 0.00 0.00 99 1018.1
20260903101229 21 245 0.0 0.0 0.00 0.00 0.00 99 1018.1
20260903100724 21 245 0.0 0.0 0.00 0.00 0.00 99 1018.4
20260903100224 21 236 0.0 0.0 0.00 0.00 0.00 99 1018.2
20260903095721 21 230 0.0 0.0 0.00 0.00 0.00 99 1018.1
20260903095216 22 239 0.0 0.0 0.00 0.00 0.00 98 1018.0
20260903094711 22 255 0.0 0.0 0.00 0.00 0.00 98 1018.1
20260903094207 22 310 0.0 0.0 0.00 0.00 0.00 98 1018.0
20260903093702 22 278 0.0 0.0 0.00 0.00 0.00 98 1018.1
20260903093157 22 218 0.0 0.0 0.00 0.00 0.00 98 1018.1
20260903092657 22 218 0.0 0.0 0.00 0.00 0.00 98 1018.1
20260903092151 22 218 0.0 0.0 0.00 0.00 0.00 98 1018.1
20260903091650 21 217 0.0 0.0 0.00 0.00 0.00 98 1018.0
20260903091144 21 217 0.0 0.0 0.00 0.00 0.00 98 1018.2
20260903090640 22 217 0.0 0.0 0.00 0.00 0.00 98 1018.0
20260903090139 22 217 0.0 0.0 0.00 0.00 0.00 98 1018.3
20260903085637 22 217 0.0 0.0 0.00 0.00 0.00 98 1018.2
20260903085133 22 217 0.0 0.0 0.00 0.00 0.00 98 1018.3
20260903084630 22 217 0.0 0.0 0.00 0.00 0.00 98 1018.2
20260903084126 22 217 0.0 0.0 0.00 0.00 0.00 97 1018.2
20260903083622 22 217 0.0 0.0 0.00 0.00 0.00 97 1018.0
20260903083121 22 217 0.0 0.0 0.00 0.00 0.00 97 1018.4
20260903082616 22 220 0.0 0.0 0.00 0.00 0.00 97 1018.1
20260903082112 22 220 0.0 0.0 0.00 0.00 0.00 97 1018.0
20260903081607 22 219 0.0 0.0 0.00 0.00 0.00 97 1018.1
20260903081103 22 234 0.0 0.0 0.00 0.00 0.00 97 1018.1
20260903080558 22 325 0.0 0.0 0.00 0.00 0.00 97 1017.9
20260903080055 22 111 0.0 0.0 0.00 0.00 0.00 97 1018.1
20260903075549 22 62 0.0 0.0 0.00 0.00 0.00 97 1017.7
20260903075045 22 231 0.0 0.0 0.00 0.00 0.00 97 1018.0
20260903074544 22 218 0.0 0.0 0.00 0.00 0.00 97 1017.9
20260903074039 22 195 0.0 0.0 0.00 0.00 0.00 97 1017.8
20260903073534 22 166 0.0 0.0 0.00 0.00 0.00 97 1017.7
20260903073030 22 166 0.0 0.0 0.00 0.00 0.00 97 1017.8
20260903072526 22 145 0.0 0.0 0.00 0.00 0.00 97 1017.9
20260903072022 22 243 0.0 0.0 0.00 0.00 0.00 96 1017.7
20260903071518 22 243 0.0 0.0 0.00 0.00 0.00 96 1017.9
20260903071019 22 246 0.0 0.0 0.00 0.00 0.00 96 1017.5
20260903070518 22 248 0.0 0.0 0.00 0.00 0.00 96 1017.8
20260903070015 22 252 0.0 0.0 0.00 0.00 0.00 96 1017.7
20260903065508 22 137 0.0 0.0 0.00 0.00 0.00 96 1017.9
20260903065008 22 137 0.0 0.0 0.00 0.00 0.00 96 1017.9
20260903064502 22 137 0.0 0.0 0.00 0.00 0.00 96 1017.6
20260903063958 22 137 0.0 0.0 0.00 0.00 0.00 95 1017.9
20260903063453 22 137 0.0 0.0 0.00 0.00 0.00 95 1017.8
20260903062948 23 137 0.0 0.0 0.00 0.00 0.00 95 1017.9
20260903062448 23 137 0.0 0.0 0.00 0.00 0.00 95 1018.0
20260903061944 23 137 0.0 0.0 0.00 0.00 0.00 95 1017.9
20260903061438 23 152 0.0 0.0 0.00 0.00 0.00 94 1018.1
20260903060933 23 136 0.0 0.0 0.00 0.00 0.00 94 1018.0
20260903060428 23 227 0.0 0.0 0.00 0.00 0.00 93 1018.0
20260903055927 23 227 0.0 0.0 0.00 0.00 0.00 93 1018.1
20260903055425 23 228 0.0 0.0 0.00 0.00 0.00 93 1018.1
20260903054920 23 228 0.0 0.0 0.00 0.00 0.00 93 1018.1
20260903054420 23 227 0.0 0.0 0.00 0.00 0.00 93 1018.1
20260903053916 23 275 0.0 0.0 0.00 0.00 0.00 93 1018.1
20260903053416 23 276 0.0 0.0 0.00 0.00 0.00 93 1018.1
20260903052912 23 119 0.0 0.0 0.00 0.00 0.00 93 1018.1
20260903052408 23 118 0.0 0.0 0.00 0.00 0.00 93 1018.3
20260903051903 23 108 0.0 0.0 0.00 0.00 0.00 93 1018.1
20260903051359 23 167 0.0 0.0 0.00 0.00 0.00 93 1018.1
20260903050854 23 167 0.0 0.0 0.00 0.00 0.00 93 1018.2
20260903050352 23 167 0.0 0.0 0.00 0.00 0.00 92 1017.9
20260903045847 23 168 0.0 0.0 0.00 0.00 0.00 92 1018.4
20260903045343 23 167 0.0 0.0 0.00 0.00 0.00 92 1018.2
20260903044840 23 158 0.0 0.0 0.00 0.00 0.00 91 1018.2
20260903044340 23 118 0.0 0.0 0.00 0.00 0.00 91 1018.1
20260903043836 23 117 0.0 0.0 0.00 0.00 0.00 91 1018.0
20260903043331 23 120 0.0 0.0 0.00 0.00 0.00 91 1018.2
20260903042830 23 120 0.0 0.0 0.00 0.00 0.00 91 1018.3
20260903042325 24 120 0.0 0.0 0.00 0.00 0.00 90 1018.4
20260903041822 24 83 0.0 0.0 0.00 0.00 0.00 91 1018.2
20260903041318 24 94 0.0 0.0 0.00 0.00 0.00 90 1018.1
20260903040813 24 150 0.0 0.0 0.00 0.00 0.00 90 1018.3
20260903040312 25 159 0.0 0.0 0.00 0.00 0.00 90 1018.2
20260903035808 25 169 0.0 0.0 0.00 0.00 0.00 89 1018.3
20260903035306 25 332 0.0 0.0 0.00 0.00 0.00 88 1018.3
20260903034758 25 333 0.0 0.0 0.00 0.00 0.00 88 1018.0
20260903034253 25 337 0.0 0.0 0.00 0.00 0.00 88 1018.1
20260903033750 25 322 0.0 0.0 0.00 0.00 0.00 88 1018.1
20260903033244 25 290 0.0 0.0 0.00 0.00 0.00 88 1018.1
20260903032738 25 289 0.0 0.0 0.00 0.00 0.00 88 1018.3
20260903032235 25 289 0.0 0.0 0.00 0.00 0.00 88 1018.1
20260903031730 25 289 0.0 0.0 0.00 0.00 0.00 88 1018.2
20260903031229 25 289 0.0 0.0 0.00 0.00 0.00 87 1018.1
20260903030726 25 298 0.0 0.0 0.00 0.00 0.00 87 1017.9
20260903030221 25 321 0.0 0.0 0.00 0.00 0.00 86 1018.1
20260903025716 25 321 0.0 0.0 0.00 0.00 0.00 86 1018.2
20260903025211 25 321 0.0 0.0 0.00 0.00 0.00 85 1018.0
20260903024706 26 333 0.0 0.0 0.00 0.00 0.00 85 1017.9
20260903024205 25 341 0.0 0.0 0.00 0.00 0.00 85 1018.1
20260903023701 26 108 0.0 0.0 0.00 0.00 0.00 85 1017.9
20260903023155 25 69 0.0 0.0 0.00 0.00 0.00 85 1018.2
20260903022649 25 117 0.0 0.0 0.00 0.00 0.00 85 1018.3
20260903022144 26 121 0.0 0.0 0.00 0.00 0.00 85 1018.0
20260903021644 26 124 0.0 0.0 0.00 0.00 0.00 85 1018.0
20260903021138 26 124 0.0 0.0 0.00 0.00 0.00 84 1018.2
20260903020634 26 335 0.0 0.0 0.00 0.00 0.00 83 1018.2
20260903020134 26 335 0.0 0.0 0.00 0.00 0.00 82 1017.9
20260903015629 26 335 0.0 0.0 0.00 0.00 0.00 82 1018.2
20260903015125 26 335 0.0 0.0 0.00 0.00 0.00 82 1018.2
20260903014624 26 335 0.0 0.0 0.00 0.00 0.00 81 1018.0
20260903014124 26 336 0.0 0.0 0.00 0.00 0.00 81 1018.2
20260903013619 26 338 0.0 0.0 0.00 0.00 0.00 81 1018.3
20260903013114 26 337 0.0 0.0 0.00 0.00 0.00 81 1018.1
20260903012613 26 337 0.0 0.0 0.00 0.00 0.00 80 1017.8
20260903012112 27 337 0.0 0.0 0.00 0.00 0.00 80 1017.9
20260903011612 27 337 0.0 0.0 0.00 0.00 0.00 79 1017.9
20260903011111 27 337 0.0 0.0 0.00 0.00 0.00 78 1017.6
20260903010607 27 337 0.0 0.0 0.00 0.00 0.00 78 1017.7
20260903010105 27 343 0.0 0.0 0.00 0.00 0.00 78 1017.7
20260903005600 27 105 0.0 0.0 0.00 0.00 0.00 78 1017.7
20260903005056 27 321 0.0 0.0 0.00 0.00 0.00 77 1017.6
20260903004556 27 321 0.0 0.0 0.00 0.00 0.00 77 1017.7
20260903004051 28 321 0.0 0.0 0.00 0.00 0.00 75 1017.6
20260903003546 28 321 0.0 0.0 0.00 0.00 0.00 76 1017.5
20260903003041 28 321 0.0 0.0 0.00 0.00 0.00 74 1017.6
20260903002537 28 321 0.0 0.0 0.00 0.00 0.00 74 1017.4
20260903002037 28 321 0.0 0.0 0.00 0.00 0.00 74 1017.5
20260903001531 28 321 0.0 0.0 0.00 0.00 0.00 72 1017.4
20260903001031 29 321 0.0 0.0 0.00 0.00 0.00 71 1017.3
20260903000527 30 321 0.0 0.0 0.00 0.00 0.00 70 1017.2
20260903000020 30 322 0.0 0.0 0.00 0.00 0.00 69 1017.3
20260902235514 30 321 0.0 0.0 0.00 0.00 0.00 68 1017.2
20260902235009 30 321 0.0 0.0 0.00 0.00 0.00 66 1017.3
20260902234504 31 36 0.0 0.0 0.00 0.00 0.00 65 1017.4
20260902234003 31 56 0.0 0.0 0.00 0.00 0.00 65 1017.4
20260902233502 31 40 0.0 0.0 0.00 0.00 0.00 64 1017.4
20260902232956 31 299 0.0 0.0 0.00 0.00 0.00 64 1017.2
20260902232450 31 232 0.0 0.0 0.00 0.00 0.00 63 1017.2
20260902231950 32 4 0.0 0.0 0.00 0.00 0.00 62 1017.4
20260902231445 32 345 0.0 0.0 0.00 0.00 0.00 61 1017.3
20260902230940 32 7 0.0 0.0 0.00 0.00 0.00 60 1017.4
20260902230440 32 346 0.0 0.0 0.00 0.00 0.00 60 1017.3
20260902225933 32 339 0.0 0.0 0.00 0.00 0.00 59 1017.4
20260902225429 33 295 0.0 0.0 0.00 0.00 0.00 59 1017.5
20260902224928 33 354 0.0 0.0 0.00 0.00 0.00 58 1017.3
20260902224427 33 337 0.0 0.0 0.00 0.00 0.00 58 1017.4
20260902223924 33 58 0.0 0.0 0.00 0.00 0.00 57 1017.5
20260902223419 34 13 0.0 0.0 0.00 0.00 0.00 57 1017.6
20260902222919 34 315 0.0 0.0 0.00 0.00 0.00 58 1017.6
20260902222417 35 298 0.0 1.6 0.00 0.00 0.00 56 1017.3
20260902221917 35 39 0.0 0.0 0.00 0.00 0.00 56 1017.6
20260902221416 35 16 0.0 0.0 0.00 0.00 0.00 54 1017.5
20260902220911 35 28 0.0 0.0 0.00 0.00 0.00 55 1017.4
20260902220406 35 297 0.0 0.0 0.00 0.00 0.00 54 1017.4
20260902215901 35 260 0.0 0.0 0.00 0.00 0.00 53 1017.4
20260902215356 35 327 0.0 0.0 0.00 0.00 0.00 53 1017.6
20260902214852 35 140 0.0 0.0 0.00 0.00 0.00 54 1017.4
20260902214351 36 55 1.6 3.2 0.00 0.00 0.00 53 1017.6
20260902213846 35 319 0.0 0.0 0.00 0.00 0.00 53 1017.5
20260902213342 36 283 0.0 0.0 0.00 0.00 0.00 52 1017.4
20260902212840 35 307 0.0 0.0 0.00 0.00 0.00 51 1017.6
20260902212337 36 353 0.0 0.0 0.00 0.00 0.00 51 1017.5
20260902211833 36 265 0.0 0.0 0.00 0.00 0.00 49 1017.5
20260902211329 35 302 0.0 0.0 0.00 0.00 0.00 51 1017.6
20260902210824 35 278 0.0 0.0 0.00 0.00 0.00 51 1017.9
20260902210323 35 86 0.0 0.0 0.00 0.00 0.00 51 1017.7
20260902205821 35 120 0.0 0.0 0.00 0.00 0.00 51 1017.8
20260902205316 35 131 0.0 0.0 0.00 0.00 0.00 52 1017.9
20260902204812 35 54 0.0 0.0 0.00 0.00 0.00 50 1017.7
20260902204306 35 348 0.0 0.0 0.00 0.00 0.00 51 1017.6
20260902203802 36 316 0.0 0.0 0.00 0.00 0.00 50 1017.6
20260902203257 36 172 0.0 0.0 0.00 0.00 0.00 51 1017.8
20260902202751 35 197 0.0 0.0 0.00 0.00 0.00 52 1017.9
20260902202248 35 33 0.0 0.0 0.00 0.00 0.00 52 1018.0
20260902201744 36 170 0.0 0.0 0.00 0.00 0.00 53 1018.0
20260902201243 35 224 0.0 0.0 0.00 0.00 0.00 55 1018.1
20260902200738 35 341 0.0 0.0 0.00 0.00 0.00 53 1017.9
20260902200234 35 55 1.6 4.8 0.00 0.00 0.00 53 1018.0
20260902195730 35 95 0.0 0.0 0.00 0.00 0.00 51 1018.2
20260902195229 35 289 0.0 0.0 0.00 0.00 0.00 52 1018.3
20260902194729 35 339 0.0 0.0 0.00 0.00 0.00 52 1018.4
20260902194224 35 296 0.0 0.0 0.00 0.00 0.00 52 1018.3
20260902193719 36 141 0.0 0.0 0.00 0.00 0.00 52 1018.4
20260902193215 35 202 0.0 0.0 0.00 0.00 0.00 51 1018.5
20260902192713 35 238 0.0 0.0 0.00 0.00 0.00 53 1018.7
20260902192212 35 212 0.0 0.0 0.00 0.00 0.00 55 1018.6
20260902191707 34 296 0.0 0.0 0.00 0.00 0.00 55 1018.8
20260902191201 35 119 0.0 0.0 0.00 0.00 0.00 60 1018.7
20260902190657 34 334 0.0 0.0 0.00 0.00 0.00 57 1018.8
20260902190152 34 77 0.0 0.0 0.00 0.00 0.00 57 1018.6
20260902185647 34 200 0.0 0.0 0.00 0.00 0.00 59 1018.7
20260902185144 34 133 0.0 0.0 0.00 0.00 0.00 61 1019.1
20260902184643 33 286 0.0 0.0 0.00 0.00 0.00 59 1019.0
20260902184139 32 300 0.0 0.0 0.00 0.00 0.00 61 1019.0
20260902183635 32 291 0.0 0.0 0.00 0.00 0.00 61 1018.9
20260902183131 32 92 0.0 0.0 0.00 0.00 0.00 61 1019.2
20260902182627 33 17 0.0 0.0 0.00 0.00 0.00 60 1019.1
20260902182123 33 94 0.0 0.0 0.00 0.00 0.00 59 1019.1
20260902181619 33 331 0.0 0.0 0.00 0.00 0.00 59 1019.3
20260902181119 34 127 0.0 0.0 0.00 0.00 0.00 60 1019.3
20260902180618 33 284 0.0 0.0 0.00 0.00 0.00 59 1019.5
20260902180116 33 305 0.0 0.0 0.00 0.00 0.00 59 1019.4
20260902175614 32 282 0.0 0.0 0.00 0.00 0.00 64 1019.3
20260902175110 32 9 0.0 0.0 0.00 0.00 0.00 62 1019.2
20260902174606 33 24 0.0 0.0 0.00 0.00 0.00 61 1019.6
20260902174102 32 16 0.0 0.0 0.00 0.00 0.00 65 1019.6
20260902173602 32 53 0.0 0.0 0.00 0.00 0.00 64 1019.6
20260902173057 33 270 0.0 0.0 0.00 0.00 0.00 63 1019.8
20260902172551 34 287 0.0 0.0 0.00 0.00 0.00 61 1019.9
20260902172045 34 203 0.0 0.0 0.00 0.00 0.00 62 1019.8
20260902171541 33 216 0.0 0.0 0.00 0.00 0.00 60 1020.0
20260902171037 33 217 0.0 0.0 0.00 0.00 0.00 63 1020.3
20260902170532 32 125 0.0 0.0 0.00 0.00 0.00 64 1020.5
20260902170028 33 104 3.2 8.0 0.00 0.00 0.00 61 1020.2
20260902165522 33 195 0.0 0.0 0.00 0.00 0.00 66 1020.3
20260902165022 32 205 0.0 0.0 0.00 0.00 0.00 66 1020.4
20260902164517 32 301 0.0 0.0 0.00 0.00 0.00 65 1020.5
20260902164016 32 196 0.0 0.0 0.00 0.00 0.00 65 1020.6
20260902163512 32 187 0.0 0.0 0.00 0.00 0.00 67 1020.8
20260902163010 32 176 0.0 0.0 0.00 0.00 0.00 64 1020.6
20260902162510 32 159 0.0 0.0 0.00 0.00 0.00 67 1020.5
20260902162005 32 148 0.0 0.0 0.00 0.00 0.00 69 1020.6
20260902161500 32 113 0.0 0.0 0.00 0.00 0.00 66 1020.9
20260902160956 32 208 0.0 0.0 0.00 0.00 0.00 66 1020.7
20260902160451 32 175 0.0 0.0 0.00 0.00 0.00 68 1020.9
20260902155949 31 340 0.0 1.6 0.00 0.00 0.00 67 1020.7
20260902155444 31 26 0.0 0.0 0.00 0.00 0.00 68 1021.1
20260902154938 31 322 0.0 0.0 0.00 0.00 0.00 67 1020.9
20260902154434 32 117 0.0 0.0 0.00 0.00 0.00 67 1020.9
20260902153933 31 237 0.0 0.0 0.00 0.00 0.00 69 1021.0
20260902153432 31 208 0.0 0.0 0.00 0.00 0.00 70 1020.9
20260902152928 31 218 0.0 0.0 0.00 0.00 0.00 70 1021.0
20260902152423 31 224 0.0 0.0 0.00 0.00 0.00 69 1021.1
20260902151919 31 186 0.0 0.0 0.00 0.00 0.00 73 1020.9
20260902151415 30 146 0.0 0.0 0.00 0.00 0.00 73 1020.9
20260902150909 30 107 0.0 0.0 0.00 0.00 0.00 71 1021.1
20260902150405 31 260 0.0 0.0 0.00 0.00 0.00 72 1021.1
20260902145904 30 183 0.0 0.0 0.00 0.00 0.00 74 1021.0
20260902145359 30 80 0.0 0.0 0.00 0.00 0.00 73 1021.0
20260902144855 30 93 0.0 0.0 0.00 0.00 0.00 74 1020.9
20260902144351 30 153 0.0 0.0 0.00 0.00 0.00 74 1020.8
20260902143850 30 131 0.0 0.0 0.00 0.00 0.00 74 1020.9
20260902143345 30 137 0.0 0.0 0.00 0.00 0.00 73 1021.0
20260902142841 30 140 0.0 0.0 0.00 0.00 0.00 75 1021.0
20260902142337 29 164 0.0 0.0 0.00 0.00 0.00 75 1020.8
20260902141832 28 16 0.0 0.0 0.00 0.00 0.00 75 1021.0
20260902141328 28 128 0.0 0.0 0.00 0.00 0.00 75 1020.8
20260902140827 28 73 0.0 0.0 0.00 0.00 0.00 77 1021.2
20260902140323 28 138 0.0 1.6 0.00 0.00 0.00 78 1020.8
20260902135821 27 139 0.0 0.0 0.00 0.00 0.00 79 1020.8
20260902135318 28 164 0.0 0.0 0.00 0.00 0.00 80 1020.9
20260902134816 27 157 0.0 0.0 0.00 0.00 0.00 81 1021.1
20260902134312 27 112 0.0 0.0 0.00 0.00 0.00 81 1021.0
20260902133808 27 117 0.0 1.6 0.00 0.00 0.00 81 1020.9
20260902133307 27 133 0.0 0.0 0.00 0.00 0.00 81 1021.1
20260902132803 27 144 3.2 3.2 0.00 0.00 0.00 82 1020.9